| time (UTC) | temp F | wind direction | speed MPH | gust MPH | rain 1hr in | rain 24hr in | rain mn in | humidity % | barometer mb |
| 20260507211315 | 53 | 349 | 0.0 | 0.0 | 0.00 | 0.06 | 0.06 | 89 | 1011.0 |
| 20260507210812 | 53 | 333 | 1.0 | 1.0 | 0.00 | 0.06 | 0.06 | 88 | 1011.0 |
| 20260507210309 | 53 | 359 | 0.0 | 0.0 | 0.00 | 0.06 | 0.06 | 90 | 1011.3 |
| 20260507205805 | 53 | 345 | 0.0 | 0.0 | 0.00 | 0.06 | 0.06 | 91 | 1011.3 |
| 20260507205306 | 53 | 25 | 0.0 | 0.0 | 0.00 | 0.06 | 0.06 | 90 | 1011.0 |
| 20260507204758 | 53 | 335 | 1.0 | 1.0 | 0.00 | 0.06 | 0.06 | 89 | 1011.3 |
| 20260507204256 | 53 | 22 | 0.0 | 0.0 | 0.00 | 0.06 | 0.06 | 91 | 1011.0 |
| 20260507203754 | 53 | 13 | 0.0 | 0.0 | 0.00 | 0.06 | 0.06 | 90 | 1011.0 |
| 20260507203252 | 53 | 357 | 1.0 | 1.0 | 0.00 | 0.06 | 0.06 | 90 | 1011.0 |
| 20260507202748 | 53 | 346 | 0.0 | 0.0 | 0.00 | 0.06 | 0.06 | 90 | 1011.0 |
| 20260507202244 | 53 | 24 | 0.0 | 0.0 | 0.00 | 0.06 | 0.06 | 92 | 1011.0 |
| 20260507201738 | 53 | 356 | 0.0 | 1.0 | 0.00 | 0.06 | 0.06 | 93 | 1011.3 |
| 20260507201236 | 53 | 17 | 0.0 | 0.0 | 0.00 | 0.06 | 0.06 | 93 | 1011.3 |
| 20260507200732 | 53 | 10 | 0.0 | 0.0 | 0.00 | 0.06 | 0.06 | 94 | 1011.7 |
| 20260507200228 | 53 | 16 | 0.0 | 0.0 | 0.00 | 0.06 | 0.06 | 93 | 1011.3 |
| 20260507195724 | 53 | 26 | 0.0 | 0.0 | 0.00 | 0.06 | 0.06 | 93 | 1011.7 |
| 20260507195222 | 53 | 335 | 0.0 | 1.0 | 0.00 | 0.06 | 0.06 | 94 | 1011.7 |
| 20260507194719 | 53 | 320 | 0.0 | 1.0 | 0.00 | 0.06 | 0.06 | 94 | 1011.7 |
| 20260507194215 | 53 | 359 | 0.0 | 0.0 | 0.00 | 0.06 | 0.06 | 94 | 1011.3 |
| 20260507193712 | 53 | 345 | 0.0 | 0.0 | 0.00 | 0.06 | 0.06 | 93 | 1011.7 |
| 20260507193208 | 54 | 20 | 1.0 | 1.0 | 0.00 | 0.06 | 0.06 | 93 | 1011.7 |
| 20260507192704 | 54 | 41 | 1.0 | 1.0 | 0.00 | 0.06 | 0.06 | 92 | 1011.7 |
| 20260507192202 | 54 | 34 | 1.0 | 1.0 | 0.05 | 0.06 | 0.06 | 93 | 1011.7 |
| 20260507191657 | 54 | 10 | 0.0 | 0.0 | 0.05 | 0.06 | 0.06 | 92 | 1012.0 |
| 20260507191155 | 54 | 24 | 0.0 | 1.0 | 0.00 | 0.05 | 0.05 | 94 | 1012.4 |
| 20260507190651 | 54 | 354 | 0.0 | 1.0 | 0.00 | 0.05 | 0.05 | 93 | 1012.0 |
| 20260507190150 | 54 | 351 | 0.0 | 1.0 | 0.00 | 0.05 | 0.05 | 93 | 1011.7 |
| 20260507185648 | 54 | 28 | 0.0 | 0.0 | 0.00 | 0.05 | 0.05 | 94 | 1012.0 |
| 20260507185144 | 54 | 21 | 0.0 | 0.0 | 0.00 | 0.05 | 0.05 | 95 | 1011.7 |
| 20260507184642 | 54 | 20 | 0.0 | 0.0 | 0.00 | 0.05 | 0.05 | 95 | 1011.7 |
| 20260507184140 | 54 | 12 | 0.0 | 0.0 | 0.12 | 0.05 | 0.05 | 96 | 1012.0 |
| 20260507183636 | 53 | 0 | 0.0 | 0.0 | 0.12 | 0.05 | 0.05 | 96 | 1012.4 |
| 20260507183133 | 52 | 11 | 0.0 | 0.0 | 0.00 | 0.03 | 0.03 | 95 | 1012.0 |
| 20260507182630 | 52 | 11 | 0.0 | 0.0 | 0.00 | 0.03 | 0.03 | 95 | 1011.7 |
| 20260507182126 | 53 | 8 | 0.0 | 0.0 | 0.00 | 0.03 | 0.03 | 93 | 1012.0 |
| 20260507181622 | 53 | 7 | 0.0 | 0.0 | 0.00 | 0.03 | 0.03 | 91 | 1012.4 |
| 20260507181119 | 54 | 9 | 0.0 | 0.0 | 0.00 | 0.03 | 0.03 | 90 | 1012.0 |
| 20260507180615 | 55 | 8 | 0.0 | 1.0 | 0.07 | 0.03 | 0.03 | 89 | 1011.7 |
| 20260507180113 | 55 | 8 | 0.0 | 0.0 | 0.14 | 0.03 | 0.03 | 86 | 1012.0 |
| 20260507175608 | 55 | 2 | 0.0 | 0.0 | 0.00 | 0.01 | 0.01 | 80 | 1012.0 |
| 20260507175106 | 55 | 329 | 1.0 | 1.0 | 0.00 | 0.01 | 0.01 | 79 | 1012.4 |
| 20260507174603 | 55 | 359 | 0.0 | 1.0 | 0.00 | 0.01 | 0.01 | 81 | 1012.0 |
| 20260507174101 | 55 | 356 | 1.0 | 1.0 | 0.00 | 0.01 | 0.01 | 79 | 1012.4 |
| 20260507173557 | 55 | 14 | 0.0 | 0.0 | 0.00 | 0.01 | 0.01 | 80 | 1012.4 |
| 20260507173055 | 55 | 350 | 0.0 | 1.0 | 0.00 | 0.01 | 0.01 | 79 | 1012.4 |
| 20260507172550 | 55 | 7 | 1.0 | 1.0 | 0.00 | 0.01 | 0.01 | 83 | 1012.4 |
| 20260507172048 | 55 | 13 | 0.0 | 0.0 | 0.00 | 0.01 | 0.01 | 82 | 1012.4 |
| 20260507171543 | 55 | 8 | 0.0 | 0.0 | 0.00 | 0.01 | 0.01 | 85 | 1012.4 |
| 20260507171040 | 55 | 20 | 0.0 | 0.0 | 0.00 | 0.01 | 0.01 | 85 | 1012.4 |
| 20260507170537 | 54 | 20 | 0.0 | 0.0 | 0.00 | 0.01 | 0.01 | 84 | 1012.4 |
| 20260507170034 | 55 | 20 | 0.0 | 1.0 | 0.00 | 0.01 | 0.01 | 85 | 1012.4 |
| 20260507165529 | 55 | 297 | 2.0 | 2.0 | 0.00 | 0.01 | 0.01 | 85 | 1012.7 |
| 20260507165026 | 55 | 10 | 1.0 | 1.0 | 0.00 | 0.01 | 0.01 | 83 | 1012.4 |
| 20260507164522 | 55 | 8 | 0.0 | 0.0 | 0.00 | 0.01 | 0.01 | 84 | 1012.7 |
| 20260507164020 | 55 | 17 | 1.0 | 1.0 | 0.00 | 0.01 | 0.01 | 83 | 1012.7 |
| 20260507163517 | 55 | 3 | 1.0 | 1.0 | 0.00 | 0.01 | 0.01 | 84 | 1012.7 |
| 20260507163015 | 55 | 344 | 0.0 | 0.0 | 0.00 | 0.01 | 0.01 | 84 | 1013.0 |
| 20260507162509 | 55 | 19 | 1.0 | 1.0 | 0.00 | 0.01 | 0.01 | 85 | 1012.7 |
| 20260507162006 | 55 | 10 | 0.0 | 0.0 | 0.00 | 0.01 | 0.01 | 90 | 1012.7 |
| 20260507161503 | 55 | 23 | 0.0 | 0.0 | 0.00 | 0.01 | 0.01 | 90 | 1012.7 |
| 20260507161000 | 54 | 9 | 0.0 | 0.0 | 0.00 | 0.01 | 0.01 | 88 | 1013.0 |
| 20260507160455 | 55 | 17 | 0.0 | 0.0 | 0.00 | 0.01 | 0.01 | 90 | 1013.4 |
| 20260507155951 | 55 | 21 | 1.0 | 1.0 | 0.00 | 0.01 | 0.01 | 91 | 1013.4 |
| 20260507155448 | 55 | 25 | 1.0 | 1.0 | 0.00 | 0.01 | 0.01 | 92 | 1013.0 |
| 20260507154945 | 55 | 20 | 1.0 | 1.0 | 0.00 | 0.01 | 0.01 | 92 | 1013.4 |
| 20260507154441 | 55 | 22 | 0.0 | 0.0 | 0.00 | 0.01 | 0.01 | 92 | 1013.4 |
| 20260507153938 | 55 | 10 | 0.0 | 0.0 | 0.00 | 0.01 | 0.01 | 92 | 1013.4 |
| 20260507153435 | 55 | 41 | 0.0 | 1.0 | 0.00 | 0.01 | 0.01 | 93 | 1013.4 |
| 20260507152931 | 55 | 350 | 0.0 | 0.0 | 0.00 | 0.01 | 0.01 | 92 | 1013.4 |
| 20260507152428 | 55 | 16 | 0.0 | 0.0 | 0.00 | 0.01 | 0.01 | 93 | 1013.4 |
| 20260507151924 | 55 | 13 | 1.0 | 1.0 | 0.00 | 0.01 | 0.01 | 93 | 1013.4 |
| 20260507151420 | 55 | 17 | 0.0 | 0.0 | 0.00 | 0.01 | 0.01 | 94 | 1013.4 |
| 20260507150917 | 55 | 3 | 0.0 | 0.0 | 0.00 | 0.01 | 0.01 | 94 | 1013.4 |
| 20260507150414 | 55 | 4 | 0.0 | 0.0 | 0.00 | 0.01 | 0.01 | 95 | 1013.0 |
| 20260507145911 | 55 | 29 | 1.0 | 1.0 | 0.00 | 0.01 | 0.01 | 95 | 1013.0 |
| 20260507145406 | 55 | 13 | 0.0 | 0.0 | 0.00 | 0.01 | 0.01 | 95 | 1013.0 |
| 20260507144904 | 55 | 22 | 0.0 | 0.0 | 0.00 | 0.01 | 0.01 | 96 | 1013.0 |
| 20260507144401 | 55 | 21 | 0.0 | 1.0 | 0.00 | 0.01 | 0.01 | 95 | 1012.7 |
| 20260507143857 | 55 | 7 | 0.0 | 0.0 | 0.00 | 0.01 | 0.01 | 95 | 1013.0 |
| 20260507143355 | 55 | 28 | 0.0 | 0.0 | 0.00 | 0.01 | 0.01 | 95 | 1013.4 |
| 20260507142851 | 55 | 28 | 0.0 | 0.0 | 0.00 | 0.01 | 0.01 | 95 | 1013.4 |
| 20260507142347 | 55 | 27 | 0.0 | 0.0 | 0.00 | 0.01 | 0.01 | 95 | 1013.4 |
| 20260507141844 | 55 | 27 | 0.0 | 0.0 | 0.00 | 0.01 | 0.01 | 95 | 1013.4 |
| 20260507141341 | 55 | 0 | 0.0 | 0.0 | 0.00 | 0.01 | 0.01 | 94 | 1013.4 |
| 20260507140837 | 55 | 359 | 0.0 | 0.0 | 0.00 | 0.01 | 0.01 | 93 | 1013.4 |
| 20260507140334 | 54 | 25 | 0.0 | 0.0 | 0.00 | 0.01 | 0.01 | 92 | 1013.0 |
| 20260507135832 | 55 | 17 | 0.0 | 0.0 | 0.00 | 0.01 | 0.01 | 93 | 1013.8 |
| 20260507135329 | 55 | 16 | 0.0 | 0.0 | 0.00 | 0.01 | 0.01 | 93 | 1013.4 |
| 20260507134826 | 54 | 15 | 0.0 | 0.0 | 0.00 | 0.01 | 0.01 | 92 | 1013.4 |
| 20260507134322 | 55 | 6 | 0.0 | 0.0 | 0.00 | 0.01 | 0.01 | 92 | 1013.4 |
| 20260507133818 | 55 | 345 | 0.0 | 0.0 | 0.00 | 0.01 | 0.01 | 92 | 1013.4 |
| 20260507133314 | 55 | 18 | 0.0 | 0.0 | 0.00 | 0.01 | 0.01 | 92 | 1013.4 |
| 20260507132812 | 55 | 12 | 0.0 | 0.0 | 0.00 | 0.01 | 0.01 | 93 | 1013.4 |
| 20260507132308 | 55 | 296 | 1.0 | 1.0 | 0.00 | 0.01 | 0.01 | 92 | 1013.4 |
| 20260507131806 | 55 | 19 | 0.0 | 1.0 | 0.00 | 0.01 | 0.01 | 93 | 1013.4 |
| 20260507131302 | 55 | 347 | 0.0 | 0.0 | 0.00 | 0.01 | 0.01 | 92 | 1013.4 |
| 20260507130759 | 54 | 18 | 0.0 | 0.0 | 0.00 | 0.01 | 0.01 | 92 | 1013.4 |
| 20260507130257 | 55 | 10 | 0.0 | 1.0 | 0.00 | 0.01 | 0.01 | 92 | 1013.4 |
| 20260507125755 | 54 | 9 | 0.0 | 0.0 | 0.00 | 0.01 | 0.01 | 93 | 1013.4 |
| 20260507125252 | 55 | 17 | 0.0 | 0.0 | 0.00 | 0.01 | 0.01 | 92 | 1013.4 |
| 20260507124749 | 54 | 346 | 0.0 | 0.0 | 0.00 | 0.01 | 0.01 | 92 | 1013.4 |
| 20260507124246 | 54 | 346 | 0.0 | 0.0 | 0.00 | 0.01 | 0.01 | 92 | 1013.4 |
| 20260507123744 | 54 | 325 | 1.0 | 2.0 | 0.00 | 0.01 | 0.01 | 93 | 1013.0 |
| 20260507123241 | 54 | 8 | 0.0 | 0.0 | 0.00 | 0.01 | 0.01 | 93 | 1013.0 |
| 20260507122737 | 54 | 18 | 0.0 | 0.0 | 0.00 | 0.01 | 0.01 | 93 | 1013.4 |
| 20260507122233 | 54 | 25 | 1.0 | 1.0 | 0.00 | 0.01 | 0.01 | 93 | 1013.4 |
| 20260507121728 | 54 | 9 | 0.0 | 0.0 | 0.00 | 0.01 | 0.01 | 93 | 1013.4 |
| 20260507121225 | 54 | 7 | 0.0 | 0.0 | 0.00 | 0.01 | 0.01 | 94 | 1013.4 |
| 20260507120721 | 54 | 24 | 0.0 | 0.0 | 0.00 | 0.01 | 0.01 | 94 | 1013.0 |
| 20260507120218 | 54 | 350 | 0.0 | 1.0 | 0.00 | 0.01 | 0.01 | 94 | 1013.4 |
| 20260507115714 | 54 | 27 | 0.0 | 0.0 | 0.00 | 0.01 | 0.01 | 95 | 1013.0 |
| 20260507115210 | 54 | 2 | 0.0 | 0.0 | 0.00 | 0.01 | 0.01 | 95 | 1013.0 |
| 20260507114706 | 54 | 11 | 0.0 | 0.0 | 0.00 | 0.01 | 0.01 | 95 | 1013.0 |
| 20260507114204 | 54 | 22 | 0.0 | 0.0 | 0.00 | 0.01 | 0.01 | 95 | 1013.0 |
| 20260507113701 | 54 | 23 | 0.0 | 0.0 | 0.00 | 0.01 | 0.01 | 95 | 1013.4 |
| 20260507113157 | 54 | 21 | 0.0 | 0.0 | 0.00 | 0.01 | 0.01 | 95 | 1012.7 |
| 20260507112655 | 54 | 21 | 0.0 | 0.0 | 0.00 | 0.01 | 0.01 | 95 | 1012.7 |
| 20260507112152 | 54 | 20 | 1.0 | 1.0 | 0.00 | 0.01 | 0.01 | 95 | 1013.0 |
| 20260507111649 | 54 | 19 | 0.0 | 0.0 | 0.00 | 0.01 | 0.01 | 95 | 1012.7 |
| 20260507111146 | 54 | 1 | 0.0 | 0.0 | 0.00 | 0.01 | 0.01 | 95 | 1012.7 |
| 20260507110642 | 54 | 22 | 0.0 | 0.0 | 0.00 | 0.01 | 0.01 | 95 | 1012.4 |
| 20260507110139 | 54 | 15 | 0.0 | 0.0 | 0.00 | 0.01 | 0.01 | 95 | 1012.0 |
| 20260507105635 | 54 | 27 | 1.0 | 1.0 | 0.00 | 0.01 | 0.01 | 95 | 1012.4 |
| 20260507105131 | 54 | 5 | 0.0 | 1.0 | 0.00 | 0.01 | 0.01 | 95 | 1012.0 |
| 20260507104629 | 54 | 4 | 0.0 | 0.0 | 0.00 | 0.01 | 0.01 | 94 | 1012.4 |
| 20260507104125 | 54 | 23 | 1.0 | 1.0 | 0.00 | 0.01 | 0.01 | 94 | 1012.4 |
| 20260507103621 | 54 | 8 | 0.0 | 0.0 | 0.00 | 0.01 | 0.01 | 94 | 1012.4 |
| 20260507103118 | 54 | 17 | 0.0 | 0.0 | 0.00 | 0.01 | 0.01 | 94 | 1012.0 |
| 20260507102615 | 55 | 21 | 0.0 | 1.0 | 0.00 | 0.01 | 0.01 | 95 | 1012.0 |
| 20260507102111 | 54 | 354 | 0.0 | 0.0 | 0.00 | 0.01 | 0.01 | 95 | 1012.4 |
| 20260507101607 | 54 | 32 | 0.0 | 1.0 | 0.00 | 0.01 | 0.01 | 95 | 1012.0 |
| 20260507101103 | 55 | 1 | 0.0 | 0.0 | 0.00 | 0.01 | 0.01 | 95 | 1012.0 |
| 20260507100600 | 54 | 5 | 1.0 | 1.0 | 0.00 | 0.01 | 0.01 | 95 | 1012.0 |
| 20260507100058 | 55 | 12 | 0.0 | 0.0 | 0.00 | 0.01 | 0.01 | 96 | 1012.0 |
| 20260507095555 | 55 | 10 | 0.0 | 0.0 | 0.00 | 0.01 | 0.01 | 96 | 1012.4 |
| 20260507095047 | 55 | 16 | 0.0 | 0.0 | 0.00 | 0.01 | 0.01 | 96 | 1012.4 |
| 20260507094543 | 55 | 312 | 2.0 | 2.0 | 0.00 | 0.01 | 0.01 | 96 | 1011.7 |
| 20260507094040 | 55 | 4 | 0.0 | 0.0 | 0.00 | 0.01 | 0.01 | 96 | 1011.7 |
| 20260507093537 | 55 | 28 | 1.0 | 2.0 | 0.00 | 0.01 | 0.01 | 96 | 1011.7 |
| 20260507093036 | 55 | 23 | 1.0 | 1.0 | 0.00 | 0.01 | 0.01 | 97 | 1011.3 |
| 20260507092532 | 56 | 23 | 1.0 | 1.0 | 0.00 | 0.01 | 0.01 | 97 | 1012.0 |
| 20260507092029 | 56 | 318 | 1.0 | 2.0 | 0.00 | 0.01 | 0.01 | 97 | 1012.0 |
| 20260507091526 | 56 | 1 | 0.0 | 0.0 | 0.00 | 0.01 | 0.01 | 97 | 1012.0 |
| 20260507091022 | 56 | 17 | 0.0 | 1.0 | 0.00 | 0.01 | 0.01 | 97 | 1011.7 |
| 20260507090517 | 56 | 18 | 0.0 | 1.0 | 0.00 | 0.01 | 0.01 | 97 | 1011.7 |
| 20260507090015 | 56 | 4 | 1.0 | 2.0 | 0.00 | 0.01 | 0.01 | 97 | 1011.7 |
| 20260507085512 | 57 | 4 | 0.0 | 1.0 | 0.00 | 0.01 | 0.01 | 98 | 1012.0 |
| 20260507085008 | 57 | 13 | 0.0 | 0.0 | 0.00 | 0.01 | 0.01 | 98 | 1011.7 |
| 20260507084505 | 57 | 16 | 1.0 | 1.0 | 0.00 | 0.01 | 0.01 | 98 | 1011.7 |
| 20260507084002 | 58 | 11 | 0.0 | 0.0 | 0.00 | 0.01 | 0.01 | 99 | 1011.3 |
| 20260507083458 | 58 | 14 | 0.0 | 0.0 | 0.00 | 0.01 | 0.01 | 99 | 1011.3 |
| 20260507082955 | 58 | 12 | 0.0 | 0.0 | 0.00 | 0.01 | 0.01 | 99 | 1011.3 |
| 20260507082451 | 59 | 20 | 0.0 | 0.0 | 0.00 | 0.01 | 0.01 | 99 | 1011.3 |
| 20260507081948 | 60 | 23 | 0.0 | 1.0 | 0.00 | 0.01 | 0.01 | 99 | 1011.3 |
| 20260507081444 | 60 | 10 | 0.0 | 0.0 | 0.00 | 0.01 | 0.01 | 99 | 1011.3 |
| 20260507080941 | 61 | 26 | 2.0 | 2.0 | 0.00 | 0.01 | 0.01 | 99 | 1011.3 |
| 20260507080437 | 62 | 1 | 0.0 | 0.0 | 0.00 | 0.01 | 0.01 | 99 | 1010.7 |
| 20260507075932 | 63 | 21 | 0.0 | 0.0 | 0.00 | 0.01 | 0.01 | 99 | 1011.0 |
| 20260507075429 | 63 | 18 | 0.0 | 0.0 | 0.00 | 0.01 | 0.01 | 99 | 1010.7 |
| 20260507074925 | 63 | 18 | 0.0 | 0.0 | 0.00 | 0.01 | 0.01 | 99 | 1010.7 |
| 20260507074422 | 63 | 13 | 0.0 | 0.0 | 0.00 | 0.01 | 0.01 | 99 | 1010.7 |
| 20260507073920 | 63 | 14 | 0.0 | 0.0 | 0.00 | 0.01 | 0.01 | 99 | 1011.3 |
| 20260507073416 | 63 | 346 | 0.0 | 0.0 | 0.00 | 0.01 | 0.01 | 99 | 1011.0 |
| 20260507072913 | 63 | 25 | 0.0 | 0.0 | 0.00 | 0.01 | 0.01 | 99 | 1011.0 |
| 20260507072410 | 63 | 25 | 0.0 | 0.0 | 0.00 | 0.01 | 0.01 | 99 | 1010.7 |
| 20260507071903 | 63 | 24 | 0.0 | 0.0 | 0.00 | 0.01 | 0.01 | 99 | 1010.7 |
| 20260507071359 | 63 | 24 | 0.0 | 0.0 | 0.00 | 0.01 | 0.01 | 99 | 1011.0 |
| 20260507070855 | 63 | 24 | 0.0 | 0.0 | 0.00 | 0.01 | 0.01 | 99 | 1010.3 |
| 20260507070353 | 63 | 24 | 0.0 | 0.0 | 0.00 | 0.01 | 0.01 | 99 | 1010.3 |
| 20260507065850 | 63 | 24 | 0.0 | 0.0 | 0.00 | 0.01 | 0.01 | 99 | 1010.3 |
| 20260507065346 | 63 | 25 | 0.0 | 0.0 | 0.00 | 0.01 | 0.01 | 99 | 1010.3 |
| 20260507064843 | 63 | 25 | 0.0 | 0.0 | 0.00 | 0.01 | 0.01 | 99 | 1010.0 |
| 20260507064342 | 63 | 24 | 0.0 | 0.0 | 0.00 | 0.01 | 0.01 | 99 | 1010.0 |
| 20260507063840 | 64 | 25 | 0.0 | 0.0 | 0.00 | 0.01 | 0.01 | 99 | 1010.0 |
| 20260507063336 | 64 | 6 | 0.0 | 0.0 | 0.00 | 0.01 | 0.01 | 99 | 1010.3 |
| 20260507062833 | 64 | 5 | 0.0 | 0.0 | 0.00 | 0.01 | 0.01 | 99 | 1010.3 |
| 20260507062330 | 64 | 5 | 0.0 | 0.0 | 0.00 | 0.01 | 0.01 | 99 | 1010.7 |
| 20260507061828 | 64 | 12 | 0.0 | 0.0 | 0.00 | 0.01 | 0.01 | 99 | 1010.7 |
| 20260507061325 | 64 | 11 | 0.0 | 0.0 | 0.00 | 0.01 | 0.01 | 99 | 1010.7 |
| 20260507060824 | 64 | 6 | 0.0 | 0.0 | 0.00 | 0.01 | 0.01 | 99 | 1010.7 |
| 20260507060320 | 64 | 12 | 0.0 | 0.0 | 0.00 | 0.01 | 0.01 | 99 | 1011.0 |
| 20260507055817 | 64 | 359 | 1.0 | 2.0 | 0.00 | 0.01 | 0.01 | 99 | 1010.7 |
| 20260507055312 | 64 | 9 | 0.0 | 0.0 | 0.00 | 0.01 | 0.01 | 99 | 1010.3 |
| 20260507054809 | 64 | 22 | 0.0 | 0.0 | 0.00 | 0.01 | 0.01 | 99 | 1010.7 |
| 20260507054305 | 64 | 355 | 0.0 | 0.0 | 0.00 | 0.01 | 0.01 | 99 | 1010.7 |
| 20260507053803 | 64 | 19 | 1.0 | 1.0 | 0.00 | 0.01 | 0.01 | 99 | 1010.3 |
| 20260507053300 | 64 | 15 | 0.0 | 0.0 | 0.00 | 0.01 | 0.01 | 99 | 1010.0 |
| 20260507052759 | 64 | 49 | 0.0 | 1.0 | 0.00 | 0.01 | 0.01 | 99 | 1009.7 |
| 20260507052255 | 64 | 49 | 0.0 | 0.0 | 0.00 | 0.01 | 0.01 | 99 | 1009.7 |
| 20260507051753 | 64 | 44 | 0.0 | 0.0 | 0.00 | 0.01 | 0.01 | 99 | 1009.7 |
| 20260507051250 | 64 | 15 | 0.0 | 0.0 | 0.00 | 0.01 | 0.01 | 99 | 1009.7 |
| 20260507050747 | 64 | 358 | 0.0 | 0.0 | 0.00 | 0.01 | 0.01 | 99 | 1009.7 |
| 20260507050243 | 64 | 0 | 0.0 | 0.0 | 0.00 | 0.01 | 0.01 | 98 | 1010.0 |
| 20260507045740 | 64 | 352 | 0.0 | 0.0 | 0.00 | 0.01 | 0.01 | 98 | 1010.0 |
| 20260507045236 | 64 | 8 | 0.0 | 0.0 | 0.00 | 0.01 | 0.01 | 98 | 1009.7 |
| 20260507044734 | 64 | 12 | 0.0 | 0.0 | 0.00 | 0.01 | 0.01 | 98 | 1010.0 |
| 20260507044230 | 64 | 10 | 0.0 | 0.0 | 0.00 | 0.01 | 0.01 | 98 | 1010.3 |
| 20260507043726 | 64 | 348 | 0.0 | 1.0 | 0.05 | 0.01 | 0.01 | 97 | 1010.3 |
| 20260507043223 | 64 | 308 | 0.0 | 1.0 | 0.05 | 0.01 | 0.01 | 97 | 1010.3 |
| 20260507042719 | 64 | 19 | 0.0 | 0.0 | 0.00 | 0.00 | 0.00 | 97 | 1010.7 |
| 20260507042214 | 65 | 348 | 1.0 | 2.0 | 0.00 | 0.00 | 0.00 | 96 | 1010.7 |
| 20260507041712 | 65 | 345 | 0.0 | 0.0 | 0.00 | 0.00 | 0.00 | 96 | 1010.7 |
| 20260507041209 | 65 | 11 | 1.0 | 1.0 | 0.00 | 0.00 | 0.00 | 96 | 1010.7 |
| 20260507040706 | 65 | 345 | 1.0 | 2.0 | 0.00 | 0.00 | 0.00 | 95 | 1010.7 |
| 20260507040201 | 65 | 357 | 0.0 | 1.0 | 0.00 | 0.00 | 0.00 | 95 | 1010.7 |
| 20260507035658 | 65 | 69 | 1.0 | 1.0 | 0.00 | 0.05 | 0.05 | 94 | 1011.0 |
| 20260507035154 | 65 | 359 | 0.0 | 0.0 | 0.00 | 0.05 | 0.05 | 94 | 1011.0 |
| 20260507034650 | 65 | 320 | 1.0 | 1.0 | 0.00 | 0.05 | 0.05 | 94 | 1010.7 |
| 20260507034148 | 65 | 17 | 0.0 | 1.0 | 0.00 | 0.05 | 0.05 | 94 | 1010.7 |
| 20260507033647 | 65 | 356 | 0.0 | 0.0 | 0.00 | 0.05 | 0.05 | 94 | 1010.7 |
| 20260507033143 | 65 | 33 | 0.0 | 0.0 | 0.00 | 0.05 | 0.05 | 94 | 1011.0 |
| 20260507032641 | 65 | 14 | 0.0 | 0.0 | 0.00 | 0.05 | 0.05 | 93 | 1011.3 |
| 20260507032136 | 65 | 24 | 0.0 | 0.0 | 0.00 | 0.05 | 0.05 | 93 | 1011.3 |
| 20260507031634 | 65 | 25 | 0.0 | 0.0 | 0.00 | 0.05 | 0.05 | 92 | 1011.3 |
| 20260507031130 | 65 | 25 | 0.0 | 0.0 | 0.00 | 0.05 | 0.05 | 92 | 1011.0 |
| 20260507030627 | 65 | 19 | 0.0 | 0.0 | 0.00 | 0.05 | 0.05 | 92 | 1011.3 |
| 20260507030125 | 65 | 19 | 0.0 | 0.0 | 0.00 | 0.05 | 0.05 | 92 | 1011.3 |
| 20260507025622 | 65 | 19 | 0.0 | 1.0 | 0.00 | 0.05 | 0.05 | 92 | 1010.7 |
| 20260507025118 | 65 | 12 | 0.0 | 1.0 | 0.00 | 0.05 | 0.05 | 92 | 1010.7 |
| 20260507024617 | 65 | 42 | 0.0 | 0.0 | 0.00 | 0.05 | 0.05 | 93 | 1011.0 |
| 20260507024114 | 64 | 44 | 0.0 | 0.0 | 0.00 | 0.05 | 0.05 | 94 | 1011.3 |
| 20260507023609 | 64 | 36 | 0.0 | 0.0 | 0.00 | 0.05 | 0.05 | 93 | 1011.0 |
| 20260507023107 | 65 | 36 | 0.0 | 0.0 | 0.00 | 0.05 | 0.05 | 93 | 1011.0 |
| 20260507022603 | 65 | 36 | 0.0 | 0.0 | 0.00 | 0.05 | 0.05 | 93 | 1010.7 |
| 20260507022053 | 65 | 36 | 0.0 | 0.0 | 0.00 | 0.05 | 0.05 | 92 | 1010.7 |
| 20260507021549 | 65 | 36 | 0.0 | 0.0 | 0.00 | 0.05 | 0.05 | 92 | 1010.3 |
| 20260507021045 | 65 | 36 | 0.0 | 0.0 | 0.00 | 0.05 | 0.05 | 92 | 1010.3 |
| 20260507020544 | 65 | 37 | 0.0 | 0.0 | 0.00 | 0.05 | 0.05 | 91 | 1010.0 |
| 20260507020040 | 65 | 37 | 0.0 | 0.0 | 0.00 | 0.05 | 0.05 | 91 | 1010.3 |
| 20260507015538 | 66 | 36 | 0.0 | 0.0 | 0.00 | 0.05 | 0.05 | 91 | 1010.3 |
| 20260507015035 | 66 | 36 | 0.0 | 0.0 | 0.00 | 0.05 | 0.05 | 91 | 1010.3 |
| 20260507014531 | 66 | 36 | 0.0 | 0.0 | 0.00 | 0.05 | 0.05 | 90 | 1010.3 |
| 20260507014027 | 66 | 26 | 0.0 | 0.0 | 0.00 | 0.05 | 0.05 | 90 | 1010.7 |
| 20260507013524 | 66 | 27 | 0.0 | 1.0 | 0.00 | 0.05 | 0.05 | 90 | 1010.7 |
| 20260507013021 | 66 | 343 | 1.0 | 2.0 | 0.00 | 0.05 | 0.05 | 90 | 1011.0 |
| 20260507012518 | 66 | 34 | 0.0 | 0.0 | 0.00 | 0.05 | 0.05 | 90 | 1010.7 |
| 20260507012014 | 66 | 22 | 0.0 | 0.0 | 0.00 | 0.05 | 0.05 | 90 | 1011.0 |
| 20260507011512 | 66 | 19 | 0.0 | 1.0 | 0.00 | 0.05 | 0.05 | 90 | 1010.7 |
| 20260507011008 | 66 | 21 | 0.0 | 0.0 | 0.00 | 0.05 | 0.05 | 89 | 1010.7 |
| 20260507010502 | 66 | 21 | 0.0 | 0.0 | 0.00 | 0.05 | 0.05 | 89 | 1011.0 |
| 20260507005959 | 66 | 29 | 1.0 | 2.0 | 0.00 | 0.05 | 0.05 | 89 | 1011.0 |
| 20260507005456 | 66 | 37 | 1.0 | 2.0 | 0.00 | 0.05 | 0.05 | 89 | 1010.7 |
| 20260507004953 | 66 | 48 | 1.0 | 1.0 | 0.00 | 0.05 | 0.05 | 89 | 1011.0 |
| 20260507004450 | 67 | 322 | 0.0 | 1.0 | 0.00 | 0.05 | 0.05 | 88 | 1010.7 |
| 20260507003948 | 67 | 46 | 0.0 | 0.0 | 0.00 | 0.05 | 0.05 | 88 | 1010.7 |
| 20260507003442 | 67 | 344 | 1.0 | 1.0 | 0.00 | 0.05 | 0.05 | 88 | 1010.7 |
| 20260507002937 | 67 | 345 | 0.0 | 0.0 | 0.00 | 0.05 | 0.05 | 88 | 1010.7 |
| 20260507002434 | 67 | 41 | 1.0 | 1.0 | 0.00 | 0.05 | 0.05 | 87 | 1010.3 |
| 20260507001931 | 67 | 358 | 0.0 | 1.0 | 0.00 | 0.05 | 0.05 | 87 | 1010.7 |
| 20260507001427 | 67 | 353 | 0.0 | 0.0 | 0.00 | 0.05 | 0.05 | 87 | 1010.7 |
| 20260507000925 | 67 | 350 | 0.0 | 1.0 | 0.00 | 0.05 | 0.05 | 87 | 1010.7 |
| 20260507000421 | 68 | 358 | 0.0 | 0.0 | 0.00 | 0.05 | 0.05 | 86 | 1010.7 |
| 20260506235916 | 68 | 20 | 0.0 | 0.0 | 0.00 | 0.05 | 0.05 | 86 | 1010.7 |
| 20260506235414 | 68 | 57 | 1.0 | 1.0 | 0.00 | 0.05 | 0.05 | 86 | 1010.7 |
| 20260506234909 | 68 | 36 | 0.0 | 1.0 | 0.00 | 0.05 | 0.05 | 86 | 1010.3 |
| 20260506234408 | 68 | 323 | 1.0 | 2.0 | 0.00 | 0.05 | 0.05 | 85 | 1010.3 |
| 20260506233905 | 68 | 303 | 1.0 | 1.0 | 0.00 | 0.05 | 0.05 | 84 | 1010.3 |
| 20260506233400 | 69 | 134 | 1.0 | 1.0 | 0.00 | 0.05 | 0.05 | 84 | 1010.7 |
| 20260506232858 | 69 | 312 | 0.0 | 1.0 | 0.00 | 0.05 | 0.05 | 84 | 1010.7 |
| 20260506232354 | 69 | 326 | 0.0 | 1.0 | 0.00 | 0.05 | 0.05 | 84 | 1010.7 |
| 20260506231850 | 69 | 12 | 0.0 | 0.0 | 0.00 | 0.05 | 0.05 | 83 | 1010.7 |
| 20260506231348 | 69 | 344 | 0.0 | 1.0 | 0.00 | 0.05 | 0.05 | 84 | 1010.7 |
| 20260506230845 | 69 | 324 | 1.0 | 1.0 | 0.00 | 0.05 | 0.05 | 84 | 1010.7 |
| 20260506230342 | 69 | 54 | 1.0 | 1.0 | 0.00 | 0.05 | 0.05 | 83 | 1010.7 |
| 20260506225838 | 69 | 141 | 1.0 | 2.0 | 0.00 | 0.05 | 0.05 | 82 | 1010.3 |
| 20260506225335 | 69 | 32 | 1.0 | 1.0 | 0.00 | 0.05 | 0.05 | 82 | 1010.7 |
| 20260506224832 | 69 | 30 | 1.0 | 2.0 | 0.00 | 0.05 | 0.05 | 82 | 1010.3 |
| 20260506224329 | 69 | 2 | 1.0 | 1.0 | 0.00 | 0.05 | 0.05 | 82 | 1010.3 |
| 20260506223825 | 69 | 298 | 0.0 | 1.0 | 0.00 | 0.05 | 0.05 | 82 | 1010.3 |
| 20260506223315 | 70 | 21 | 1.0 | 1.0 | 0.00 | 0.05 | 0.05 | 81 | 1010.3 |
| 20260506222813 | 70 | 348 | 0.0 | 0.0 | 0.00 | 0.05 | 0.05 | 83 | 1010.0 |
| 20260506222308 | 70 | 310 | 1.0 | 1.0 | 0.00 | 0.05 | 0.05 | 82 | 1010.3 |
| 20260506221806 | 70 | 4 | 0.0 | 1.0 | 0.00 | 0.05 | 0.05 | 81 | 1010.0 |
| 20260506221303 | 70 | 318 | 0.0 | 1.0 | 0.00 | 0.05 | 0.05 | 83 | 1010.0 |
| 20260506220801 | 70 | 20 | 0.0 | 1.0 | 0.00 | 0.05 | 0.05 | 82 | 1010.3 |
| 20260506220255 | 70 | 18 | 1.0 | 1.0 | 0.00 | 0.05 | 0.05 | 81 | 1010.0 |
| 20260506215752 | 70 | 96 | 1.0 | 1.0 | 0.00 | 0.05 | 0.05 | 81 | 1010.3 |
| 20260506215248 | 70 | 251 | 4.0 | 5.0 | 0.00 | 0.05 | 0.05 | 82 | 1010.3 |
| 20260506214744 | 70 | 71 | 1.0 | 1.0 | 0.00 | 0.05 | 0.05 | 81 | 1010.0 |
| 20260506214241 | 70 | 115 | 0.0 | 1.0 | 0.00 | 0.05 | 0.05 | 82 | 1010.3 |
| 20260506213740 | 69 | 308 | 1.0 | 2.0 | 0.00 | 0.05 | 0.05 | 83 | 1010.0 |
| 20260506213231 | 69 | 236 | 3.0 | 3.0 | 0.00 | 0.05 | 0.05 | 83 | 1010.3 |
| 20260506212728 | 69 | 1 | 2.0 | 2.0 | 0.00 | 0.05 | 0.05 | 84 | 1010.3 |
| 20260506212224 | 69 | 342 | 1.0 | 1.0 | 0.00 | 0.05 | 0.05 | 83 | 1010.3 |
| 20260506211719 | 69 | 186 | 3.0 | 3.0 | 0.00 | 0.05 | 0.05 | 83 | 1010.0 |